This demonstration page uses our WeatherBlox Daily Observations layout. Learn more.

Left ArrowRight Arrow

Hourly Observations for November 7, 2015

Temp ( °F °C ) Dew Point ( °F °C ) Humidity (%) Winds ( mph kmh ) Pressure ( in mb ) Visibility ( mi km ) Precip ( " mm )
12:53 am 00:53 Clear 37 2.8 25 -3.9 62 62 SW 25 41 30.06 1018 10 16 N/A
1:53 am 01:53 Clear 38 3.3 26 -3.3 62 62 SW 24 39 30.06 1018 10 16 N/A
2:53 am 02:53 Clear 38 3.3 27 -2.8 65 65 SW 26 43 30.06 1018 10 16 N/A
3:53 am 03:53 Clear 39 3.9 27 -2.8 62 62 SW 26 43 30.05 1018 10 16 N/A
4:53 am 04:53 Clear 40 4.4 27 -2.8 60 60 SW 26 43 30.06 1018 10 16 N/A
5:53 am 05:53 Clear 40 4.4 28 -2.2 63 63 SW 28 44 30.05 1018 10 16 N/A
6:53 am 06:53 Clear 42 5.6 28 -2.2 58 58 SW 24 39 30.06 1018 10 16 N/A
7:53 am 07:53 Sunny 43 6.1 28 -2.2 56 56 SW 28 44 30.06 1018 10 16 N/A
8:53 am 08:53 Sunny 45 7.2 28 -2.2 52 52 SW 25 41 30.05 1018 10 16 N/A
9:53 am 09:53 Sunny 48 8.9 29 -1.7 48 48 SW 23 37 30.04 1017 10 16 N/A
10:53 am 10:53 Sunny 51 10.6 31 -0.6 46 46 SW 20 31 30.04 1017 10 16 N/A
11:53 am 11:53 Sunny 56 13.3 33 0.6 42 42 SW 23 37 29.99 1016 10 16 N/A
12:53 pm 12:53 Sunny 59 15 33 0.6 38 38 SW 22 35 29.95 1014 10 16 N/A
1:53 pm 13:53 Sunny 60 15.6 34 1.1 38 38 SW 25 41 29.92 1013 10 16 N/A
2:53 pm 14:53 Sunny 59 15 33 0.6 38 38 SW 24 39 29.89 1012 10 16 N/A
3:53 pm 15:53 Sunny 58 14.4 33 0.6 39 39 SW 16 26 29.87 1011 10 16 N/A
4:53 pm 16:53 Clear 53 11.7 33 0.6 47 47 SW 6 9 29.86 1011 10 16 N/A
5:53 pm 17:53 Clear 49 9.4 33 0.6 55 55 SW 17 28 29.84 1011 10 16 N/A
6:53 pm 18:53 Clear 50 10 32 undefined 50 50 SSW 22 35 29.84 1011 10 16 N/A
7:53 pm 19:53 Clear 47 8.3 31 -0.6 54 54 W 9 15 29.85 1011 10 16 N/A
8:53 pm 20:53 Clear 46 7.8 30 -1.1 54 54 SW 18 30 29.82 1010 10 16 N/A
9:53 pm 21:53 Clear 45 7.2 29 -1.7 54 54 SW 13 20 29.83 1010 10 16 N/A
10:53 pm 22:53 Clear 39 3.9 28 -2.2 65 65 SW 10 17 29.84 1011 10 16 N/A
11:53 pm 23:53 Clear 39 3.9 28 -2.2 65 65 WSW 9 15 29.84 1010 10 16 N/A

Powered by AerisWeather